Weather History for Hilo, HI

Change the Weather History Date:

Saturday, March 15, 2014

  Actual Average Record
Temperature  
Mean Temperature 74 °F 72 °F  
Max Temperature 81 °F 79 °F 85 °F (1986)
Min Temperature 66 °F 65 °F 57 °F (1958)
Degree Days  
Heating Degree Days 0 0  
Month to date heating degree days 0 0  
Since 1 July heating degree days 0 0  
Cooling Degree Days 9 7  
Month to date cooling degree days 118 102  
Year to date cooling degree days 576 472  
Growing Degree Days 24 (Base 50)    
Moisture  
Dew Point 68 °F    
Average Humidity 85    
Maximum Humidity 100    
Minimum Humidity 69    
Precipitation  
Precipitation 0.55 in 0.43 in 3.43 in (1980)
Month to date precipitation 6.68 6.30  
Year to date precipitation 14.91 25.12  
Snow  
Snow 0.00 in - - ()
Month to date snowfall 0.0  
Since 1 July snowfall 0.0  
Snow Depth 0.00 in    
Sea Level Pressure  
Sea Level Pressure 30.04 in    
Wind  
Wind Speed 8 mph (NNW)    
Max Wind Speed 18 mph    
Max Gust Speed 25 mph    
Visibility 8 miles    
Events Rain    
T = Trace of Precipitation, MM = Missing Value Source: NWS Daily Summary

Daily Weather History Graph

Daily Weather History Graph

Search for Another Location

Airport:

Trip Planner

Search our weather history database for the weather conditions in past years. The results will help you decide how hot, cold, wet, or windy it might be!

Date:

Astronomy

Mar. 15, 2014 Rise Set
Actual Time 6:28 AM HST 6:29 PM HST
Civil Twilight 6:06 AM HST 6:51 PM HST
Nautical Twilight 5:40 AM HST 7:17 PM HST
Astronomical Twilight 5:15 AM HST 7:42 PM HST
Moon 5:59 PM HST (3/15) 5:42 AM HST (3/15)
Length of Visible Light 12h 45m
Length of Day
12h 01m
Waxing Gibbous, 99% of the Moon is Illuminated
Mar 15
Waxing Gibbous
Mar 16
Full
Mar 23
Last Quarter
Mar 30
New
Apr 6
First Quarter

Hourly Weather History & Observations

Time (HST) Temp. Heat Index Dew Point Humidity Pressure Visibility Wind Dir Wind Speed Gust Speed Precip Events Conditions
12:08 AM 69.1 °F - 69.1 °F 100% 30.06 in 9.0 mi SW 3.5 mph - N/A   Mostly Cloudy
12:45 AM 68.0 °F - 66.9 °F 96% 30.05 in 1.8 mi WSW 5.8 mph - 0.12 in Rain Heavy Rain
12:53 AM 68.0 °F - 66.9 °F 96% 30.05 in 2.5 mi WSW 4.6 mph - 0.20 in Rain Heavy Rain
1:10 AM 68.0 °F - 66.9 °F 96% 30.04 in 8.0 mi WSW 9.2 mph - 0.10 in Rain Light Rain
1:53 AM 68.0 °F - 68.0 °F 100% 30.03 in 10.0 mi WSW 6.9 mph - 0.14 in Rain Light Rain
2:53 AM 68.0 °F - 66.0 °F 93% 30.01 in 10.0 mi SW 6.9 mph - 0.01 in   Overcast
3:53 AM 68.0 °F - 66.0 °F 93% 30.00 in 10.0 mi Calm Calm - N/A   Mostly Cloudy
4:53 AM 66.9 °F - 66.0 °F 97% 30.00 in 10.0 mi West 4.6 mph - N/A   Scattered Clouds
5:53 AM 66.9 °F - 66.0 °F 97% 30.02 in 10.0 mi WSW 5.8 mph - N/A   Scattered Clouds
6:53 AM 68.0 °F - 66.9 °F 96% 30.04 in 10.0 mi WSW 4.6 mph - N/A   Mostly Cloudy
7:53 AM 70.0 °F - 68.0 °F 93% 30.05 in 10.0 mi WSW 4.6 mph - N/A   Mostly Cloudy
8:53 AM 75.9 °F - 69.1 °F 79% 30.07 in 10.0 mi North 6.9 mph - N/A   Scattered Clouds
9:53 AM 78.1 °F - 70.0 °F 76% 30.07 in 10.0 mi North 8.1 mph - N/A   Mostly Cloudy
10:53 AM 80.1 °F 83.2 °F 70.0 °F 71% 30.07 in 10.0 mi NNE 10.4 mph - N/A   Clear
11:53 AM 81.0 °F 84.9 °F 71.1 °F 72% 30.06 in 10.0 mi North 11.5 mph - N/A   Mostly Cloudy
12:39 PM 73.0 °F - 70.0 °F 90% 30.05 in 1.8 mi NNE 15.0 mph - 0.00 in Rain Heavy Rain
12:46 PM 72.0 °F - 69.1 °F 91% 30.05 in 1.5 mi North 12.7 mph - 0.12 in Rain Rain
12:50 PM 71.6 °F - 69.8 °F 94% 30.05 in 3.0 mi North 13.8 mph - 0.13 in Rain Heavy Rain
12:53 PM 73.0 °F - 71.1 °F 93% 30.04 in 3.0 mi North 13.8 mph - 0.14 in Rain Rain
1:53 PM 72.0 °F - 70.0 °F 93% 30.02 in 8.0 mi NNW 16.1 mph - 0.03 in Rain Light Rain
2:00 PM 72.0 °F - 70.0 °F 93% 30.02 in 10.0 mi NNW 15.0 mph - 0.00 in Rain Light Rain
2:53 PM 72.0 °F - 69.1 °F 91% 30.00 in 6.0 mi North 12.7 mph - 0.00 in Rain Light Rain
3:36 PM 72.0 °F - 69.1 °F 91% 30.01 in 3.0 mi North 8.1 mph - 0.03 in Rain Light Rain
3:46 PM 72.0 °F - 69.1 °F 91% 30.00 in 10.0 mi NNW 13.8 mph - 0.03 in Rain Light Rain
3:53 PM 72.0 °F - 69.1 °F 91% 30.00 in 10.0 mi North 13.8 mph - 0.03 in   Overcast
4:45 PM 73.0 °F - 69.1 °F 87% 30.00 in 10.0 mi NNW 12.7 mph 19.6 mph 0.00 in   Overcast
4:53 PM 72.0 °F - 70.0 °F 93% 30.01 in 8.0 mi NNW 12.7 mph - 0.00 in Rain Light Rain
5:53 PM 72.0 °F - 68.0 °F 87% 30.02 in 10.0 mi NNE 17.3 mph 25.3 mph 0.01 in Rain Light Rain
6:24 PM 73.0 °F - 66.9 °F 81% 30.03 in 10.0 mi NNE 16.1 mph - 0.00 in   Overcast
6:53 PM 73.0 °F - 66.0 °F 79% 30.03 in 10.0 mi NNE 13.8 mph - 0.00 in   Overcast
7:53 PM 73.0 °F - 66.9 °F 81% 30.04 in 10.0 mi NNE 15.0 mph 20.7 mph N/A   Overcast
8:20 PM 73.0 °F - 68.0 °F 84% 30.05 in 10.0 mi NNE 19.6 mph 26.5 mph N/A   Overcast
8:53 PM 72.0 °F - 66.9 °F 84% 30.06 in 10.0 mi NNE 20.7 mph 28.8 mph N/A   Overcast
9:25 PM 71.1 °F - 69.1 °F 93% 30.08 in 9.0 mi North 17.3 mph 28.8 mph 0.00 in Rain Light Rain
9:53 PM 71.1 °F - 66.9 °F 87% 30.08 in 10.0 mi NNE 16.1 mph 25.3 mph 0.00 in Rain Light Rain
10:53 PM 70.0 °F - 66.9 °F 90% 30.09 in 7.0 mi NE 21.9 mph 27.6 mph 0.00 in Rain Rain
11:39 PM 70.0 °F - 68.0 °F 93% 30.09 in 6.0 mi NNE 13.8 mph 25.3 mph 0.04 in Rain Light Rain
11:53 PM 69.1 °F - 66.9 °F 93% 30.08 in 5.0 mi North 19.6 mph 29.9 mph 0.05 in Rain Rain